RAISE-4

基本信息
目录编号:
67073
目录名称:
RAISE-4
国际标识:
2025-297B
轨道中心:
EARTH
卫星名称:
RAISE-4
卫星全名:
RAISE-4
卫星状态:
在轨 (已飞行5 天)
发射日期:
2025-12-14 UTC
国别 :
美国 (US)
星等 :
--
轨道信息
数据来源 国际轨道数据
星历时间: 2025-12-19T14:31:31+0800
11小时前
查看轨道信息
半长轴: 6922.967km
偏心率: 0.0011418
轨道倾角: 97.485°
近地点辐角 296.967°
升交点赤经 140.645°
平近点角 63.039°
近地点: 536.925km
远地点: 552.735km
周期: 95.543分钟
每日圈数: 15.071775
详细信息
使用方式:
暂无
2D轨道图
3D轨道图
轨道高度分析图
轨道倾角分析图
轨道综合分析图
查看轨道综合分析图